Location: Newark
(44.4156°N, 12.1972°E)
Time: 10:24:24
(UTC+00:00)

STARLINK-1082 - Pass Details

Date: 31 January 2020
Orbit: 348 x 351 km, 53.0° (Epoch: 18 February)

Event Time Altitude Azimuth Distance (km) Brightness Sun altitude
Rises 17:10:43 0° 305° (NW) 2,158 7.3 -9.7°
Reaches altitude 10° 17:12:46 10° 310° (NW) 1,313 6.1 -10.0°
Maximum altitude 17:15:38 55° 30° (NNE) 425 2.8 -10.5°
Enters shadow 17:17:54 15° 107° (ESE) 1,064 4.6 -10.9°
